Location: Clover
(42.5131°N, 114.6874°W)
Time: 14:32:08
(UTC+00:00)

Transit 2A Rocket - Pass Details

Date: 14 November 2024
Orbit: 585 x 904 km, 66.7° (Epoch: 02 December)

Event Time Altitude Azimuth Distance (km) Brightness Sun altitude
Rises 01:02:43 0° 331° (NNW) 3,265 8.4 -8.6°
Reaches altitude 10° 01:05:16 10° 335° (NNW) 2,281 7.6 -9.1°
Maximum altitude 01:10:24 62° 56° (NE) 788 4.8 -10.0°
Drops below altitude 10° 01:15:02 10° 137° (SE) 2,065 7.0 -10.8°
Sets 01:17:14 0° 141° (SE) 2,930 7.8 -11.2°
